[[{"header":{"parameterUnit":"m.s-1","parameterCategory":1,"la1":30.2991,"la2":30.254,"lo1":-89.0895,"lo2":-89.0444,"dy":0.0017,"dx":0.0017,"nx":28,"ny":28,"refTime":"2025-01-07T09:00:00:Z","depth":0,"parameterNumber":2,"parameterNumberName":"U-component_of_WINDS"},"data":[0,0,0,0,0,0,0,0,0,0,0,0,0,0,0,0,0,0,0,0,0,0,0,0,0,0,0,0,0,0,0,0,0,0,0,0,0,0,0,0,0,0,0,0,0,0,0,0,0,0,0,0,0,0,0,0,0,0,-1.6006,-1.6007,0,-1.6097,-1.6098,-1.6099,-1.6029,-1.6025,-1.6022,-1.602,-1.6117,-1.6122,-1.6127,0,0,0,0,0,0,0,0,0,0,0,0,0,-1.5773,-1.5778,-1.6006,-1.6007,-1.6008,-1.6097,-1.6098,-1.6099,-1.6029,-1.6025,-1.6022,-1.6018,-1.6115,-1.6121,-1.6128,0,0,0,0,0,0,0,0,0,0,0,0,0,-1.587,-1.5779,-1.6005,-1.5983,-1.5982,-1.6096,-1.6098,-1.6099,-1.603,-1.6025,-1.6021,-1.6016,-1.6113,-1.6121,-1.6129,-1.627,0,0,-1.6153,-1.6157,0,0,0,0,0,0,0,0,-1.5865,-1.5879,-1.5986,-1.5985,-1.5984,-1.6046,-1.6051,-1.6157,-1.6031,-1.6012,-1.6019,-1.6014,-1.6097,-1.6106,-1.6134,-1.6275,-1.6279,-1.6154,-1.6159,-1.6163,-1.6165,0,0,0,0,0,0,0,-1.5858,-1.5875,-1.6042,-1.5987,-1.5986,-1.597,-1.5979,-1.6071,-1.6079,-1.6013,-1.6008,-1.602,-1.6096,-1.6126,-1.6135,-1.628,-1.6154,-1.6161,-1.6166,-1.6169,-1.6542,-1.6546,0,0,0,0,0,0,-1.5853,-1.5869,-1.6039,-1.6044,-1.5912,-1.5978,-1.5988,-1.6031,-1.6078,-1.6081,-1.6024,-1.6016,-1.6114,-1.6126,-1.6138,-1.6308,-1.6162,-1.617,-1.6175,-1.6537,-1.6543,-1.6548,0,0,0,0,0,0,-1.5848,-1.5869,-1.6035,-1.5956,-1.5975,-1.5987,-1.6036,-1.6035,-1.6065,-1.6086,-1.6087,-1.6053,-1.6111,-1.6127,-1.6238,-1.631,-1.6174,-1.6181,-1.6531,-1.6539,-1.6545,-1.6648,0,0,0,0,0,0,-1.5842,-1.5868,-1.5921,-1.5957,-1.598,-1.6133,-1.6041,-1.604,-1.6079,-1.607,-1.6113,-1.6116,-1.6109,-1.6226,-1.6246,-1.6319,-1.6187,-1.6524,-1.6534,-1.6543,-1.6638,-1.6658,-1.6675,0,0,0,0,0,-1.5834,-1.5947,-1.5924,-1.5945,-1.6047,-1.6137,-1.615,-1.6138,-1.6085,-1.614,-1.6152,-1.6115,-1.6298,-1.6238,-1.6259,-1.6336,-1.652,-1.6531,-1.6542,-1.663,-1.6654,-1.6674,0,0,0,0,0,0,-1.5921,-1.5952,-1.5927,-1.6055,-1.6094,-1.6125,-1.6193,-1.6164,-1.622,-1.621,-1.6193,-1.6203,-1.632,-1.6338,-1.6271,-1.6475,-1.6401,-1.6417,-1.646,-1.6483,-1.6501,-1.6495,-1.6194,0,0,0,0,0,-1.5955,-1.6025,-1.6047,-1.6158,-1.6179,-1.6183,-1.6221,-1.6209,-1.6249,-1.6265,-1.6286,-1.6328,-1.6394,-1.6439,-1.6502,-1.6639,-1.6648,-1.6702,-1.6721,-1.6736,-1.6751,-1.6826,-1.685,-1.6585,-1.6585,-1.6585,0,0,-1.6027,-1.6051,-1.6097,-1.6176,-1.6205,-1.6279,-1.6197,-1.6278,-1.6333,-1.6278,-1.6384,-1.64,-1.6445,-1.657,-1.6626,-1.6589,-1.6825,-1.675,-1.6762,-1.6769,-1.684,-1.6865,-1.6887,-1.6593,-1.6591,-1.659,0,0,-1.6194,-1.622,-1.6315,-1.6345,-1.6388,-1.639,-1.6413,-1.6448,-1.6457,-1.6562,-1.6522,-1.6587,-1.6702,-1.6736,-1.6768,-1.6946,-1.6914,-1.6967,-1.7064,-1.7137,-1.7158,-1.7177,-1.7242,-1.7265,-1.6981,-1.6981,-1.6982,0,-1.6278,-1.6386,-1.6368,-1.6452,-1.6489,-1.644,-1.6537,-1.6567,-1.6629,-1.6656,-1.6613,-1.6756,-1.6783,-1.6915,-1.6958,-1.6985,-1.7012,-1.6964,-1.7156,-1.7175,-1.7192,-1.7254,-1.7278,-1.6988,-1.6987,-1.6986,-1.6986,0,-1.6488,-1.6563,-1.6635,-1.6695,-1.6739,-1.683,-1.6826,-1.6873,-1.6855,-1.6861,-1.6969,-1.6999,-1.7067,-1.7096,-1.708,-1.7226,-1.7202,-1.7158,-1.7083,-1.7224,-1.7282,-1.7305,-1.6997,-1.6994,-1.6993,-1.6991,0,0,-1.6717,-1.6764,-1.6791,-1.6818,-1.6861,-1.6919,-1.7007,-1.7072,-1.7113,-1.7157,-1.7231,-1.7328,-1.7287,-1.7324,-1.7311,-1.7374,-1.7515,-1.7322,-1.7323,-1.7359,-1.7679,-1.7714,-1.7742,-1.7492,-1.7497,-1.75,-1.7676,0,-1.6889,-1.7041,-1.7026,-1.717,-1.724,-1.7193,-1.727,-1.7305,-1.7312,-1.7373,-1.7381,-1.7451,-1.7391,-1.7413,-1.7473,-1.7485,-1.758,-1.7472,-1.7563,-1.7567,-1.7556,-1.7772,-1.7809,-1.7974,-1.7698,-1.7702,-1.7705,0,-1.711,-1.7161,-1.7312,-1.7344,-1.7373,-1.7442,-1.75,-1.7558,-1.7596,-1.7597,-1.7637,-1.7613,-1.7701,-1.7621,-1.7744,-1.7671,-1.7707,-1.7718,-1.7724,-1.7735,-1.7646,-1.779,-1.8025,-1.8051,-1.774,-1.7737,-1.7735,0,-1.7265,-1.737,-1.7474,-1.7498,-1.7538,-1.7587,-1.7606,-1.764,-1.768,-1.773,-1.7756,-1.7816,-1.785,-1.7898,-1.789,-1.7833,-1.8016,-1.7935,-1.802,-1.8021,-1.8064,-1.8062,-1.831,-1.8082,-1.8082,-1.8081,-1.8081,0,-1.746,-1.7555,-1.7544,-1.7609,-1.7714,-1.7695,-1.78,-1.7813,-1.7843,-1.7909,-1.7872,-1.7935,-1.792,-1.7984,-1.7978,-1.8081,-1.8096,-1.81,-1.8098,-1.8105,-1.8105,-1.8131,-1.812,-1.8088,-1.8086,-1.8085,-1.8084,0,-1.7652,-1.7648,-1.7759,-1.7786,-1.7795,-1.7872,-1.7895,-1.7956,-1.7959,-1.8044,-1.8063,-1.8068,-1.814,-1.8136,-1.8218,-1.8214,-1.8342,-1.8325,-1.8329,-1.8327,-1.8412,-1.8405,-1.8689,-1.8726,-1.8471,-1.8474,-1.8476,0,-1.7778,-1.785,-1.7884,-1.7925,-1.7947,-1.8014,-1.8054,-1.8038,-1.8081,-1.8129,-1.8185,-1.8253,-1.8307,-1.8425,-1.8436,-1.8499,-1.8485,-1.8579,-1.8494,-1.8499,-1.8489,-1.8486,-1.8493,-1.8598,-1.86,-1.8603,-1.8605,0,-1.8003,-1.7997,-1.8055,-1.8113,-1.8161,-1.8206,-1.8247,-1.8283,-1.8271,-1.8321,-1.8394,-1.8436,-1.8518,-1.8587,-1.8646,-1.8666,-1.8635,-1.8631,-1.8654,-1.8664,-1.8664,-1.8667,-1.8378,-1.8625,-1.8623,-1.8622,-1.862,-1.862,-1.8168,-1.8229,-1.8263,-1.8329,-1.8357,-1.8396,-1.8455,-1.8464,-1.8524,-1.8589,-1.8575,-1.8658,-1.8693,-1.8769,-1.8794,-1.8858,-1.8825,-1.8858,-1.8867,-1.8876,-1.8887,-1.8651,-1.8869,-1.8868,-1.8867,-1.8867,-1.8866,0,-1.8393,-1.8411,-1.8472,-1.8529,-1.8582,-1.8544,-1.8587,-1.8633,-1.8705,-1.8741,-1.8794,-1.8877,-1.8943,-1.8959,-1.9022,-1.907,-1.9057,-1.9088,-1.9086,-1.9091,-1.8912,-1.8887,-1.9097,-1.9097,-1.9097,-1.9097,-1.9097,-1.9097,-1.8516,-1.8619,-1.8617,-1.8733,-1.875,-1.883,-1.8858,-1.8893,-1.8921,-1.9015,-1.907,-1.9078,-1.9106,-1.917,-1.9229,-1.9232,-1.9258,-1.9295,-1.9293,-1.9126,-1.9103,-1.9082,-1.9058,-1.93,-1.9301,-1.9466,-1.9467,-1.9468]},{"header":{"parameterUnit":"m.s-1","parameterCategory":1,"la1":30.2991,"la2":30.254,"lo1":-89.0895,"lo2":-89.0444,"dy":0.0017,"dx":0.0017,"nx":28,"ny":28,"refTime":"2025-01-07T09:00:00:Z","depth":0,"parameterNumber":3,"parameterNumberName":"V-component_of_WINDS"},"data":[0,0,0,0,0,0,0,0,0,0,0,0,0,0,0,0,0,0,0,0,0,0,0,0,0,0,0,0,0,0,0,0,0,0,0,0,0,0,0,0,0,0,0,0,0,0,0,0,0,0,0,0,0,0,0,0,0,0,-5.9277,-5.9278,0,-5.9391,-5.9392,-5.9393,-5.9298,-5.9294,-5.929,-5.9286,-5.9398,-5.9405,-5.9411,0,0,0,0,0,0,0,0,0,0,0,0,0,-5.8972,-5.8978,-5.9277,-5.9278,-5.928,-5.939,-5.9392,-5.9393,-5.9298,-5.9294,-5.9289,-5.9284,-5.9396,-5.9404,-5.9412,0,0,0,0,0,0,0,0,0,0,0,0,0,-5.9097,-5.898,-5.9276,-5.9246,-5.9244,-5.939,-5.9392,-5.9394,-5.9299,-5.9294,-5.9288,-5.9282,-5.9393,-5.9403,-5.9413,-5.9594,0,0,-5.9444,-5.9448,0,0,0,0,0,0,0,0,-5.909,-5.9108,-5.9249,-5.9248,-5.9246,-5.9324,-5.9325,-5.9461,-5.9301,-5.9278,-5.9286,-5.9279,-5.9378,-5.9389,-5.9423,-5.9599,-5.9604,-5.9444,-5.9451,-5.9455,-5.9458,0,0,0,0,0,0,0,-5.9081,-5.9102,-5.9321,-5.9251,-5.925,-5.9224,-5.9235,-5.9351,-5.936,-5.928,-5.9273,-5.9288,-5.9376,-5.9414,-5.9425,-5.9606,-5.9444,-5.9453,-5.9459,-5.9463,-5.9934,-5.994,0,0,0,0,0,0,-5.9076,-5.9096,-5.9318,-5.9325,-5.9152,-5.9235,-5.9247,-5.9305,-5.9359,-5.9361,-5.9293,-5.9283,-5.94,-5.9413,-5.9429,-5.9643,-5.9455,-5.9464,-5.947,-5.9927,-5.9935,-5.9942,0,0,0,0,0,0,-5.907,-5.9097,-5.9313,-5.9209,-5.9234,-5.9246,-5.9312,-5.931,-5.9348,-5.9369,-5.9369,-5.933,-5.9395,-5.9415,-5.9553,-5.9646,-5.9469,-5.9478,-5.992,-5.993,-5.9939,-6.0074,0,0,0,0,0,0,-5.9062,-5.9095,-5.9166,-5.9211,-5.924,-5.9439,-5.9318,-5.9317,-5.9366,-5.9354,-5.9404,-5.9406,-5.9392,-5.9539,-5.9563,-5.9656,-5.9486,-5.9911,-5.9924,-5.9935,-6.0062,-6.0087,-6.011,0,0,0,0,0,-5.9051,-5.9199,-5.917,-5.9197,-5.9329,-5.9444,-5.946,-5.9443,-5.9374,-5.9444,-5.9457,-5.9404,-5.9632,-5.9554,-5.9581,-5.9678,-5.9905,-5.992,-5.9935,-6.0051,-6.0082,-6.0109,0,0,0,0,0,0,-5.9163,-5.9204,-5.9173,-5.934,-5.9389,-5.9428,-5.9515,-5.9477,-5.9546,-5.9532,-5.9506,-5.9518,-5.9664,-5.9684,-5.9597,-5.9855,-5.9757,-5.9778,-5.9836,-5.9867,-5.989,-5.9882,-5.9494,0,0,0,0,0,-5.9207,-5.9299,-5.9329,-5.9474,-5.95,-5.9504,-5.9553,-5.9536,-5.9585,-5.9605,-5.9628,-5.9677,-5.9759,-5.9814,-5.989,-6.0064,-6.0072,-6.0144,-6.0167,-6.0187,-6.0205,-6.0297,-6.0329,-5.999,-5.999,-5.999,0,0,-5.9299,-5.9333,-5.9392,-5.9497,-5.9533,-5.9627,-5.9522,-5.9626,-5.9695,-5.962,-5.9753,-5.9772,-5.9824,-5.9981,-6.0051,-6.0003,-6.03,-6.0206,-6.0221,-6.0229,-6.0315,-6.0347,-6.0376,-6.0,-5.9998,-5.9996,0,0,-5.9515,-5.955,-5.9674,-5.9713,-5.9769,-5.977,-5.98,-5.9845,-5.9855,-5.9988,-5.9933,-6.0014,-6.0156,-6.0195,-6.0234,-6.0463,-6.0417,-6.0489,-6.0614,-6.0704,-6.073,-6.0754,-6.0835,-6.0864,-6.0507,-6.0507,-6.0507,0,-5.9622,-5.9763,-5.9742,-5.985,-5.9897,-5.9835,-5.9959,-5.9996,-6.0075,-6.0108,-6.0053,-6.0229,-6.026,-6.0425,-6.0481,-6.0514,-6.0546,-6.0483,-6.0728,-6.0752,-6.0773,-6.085,-6.0881,-6.0515,-6.0514,-6.0513,-6.0513,0,-5.9891,-5.9989,-6.0082,-6.0161,-6.0217,-6.0333,-6.0328,-6.0388,-6.0365,-6.0371,-6.0506,-6.0541,-6.0623,-6.0661,-6.0639,-6.0822,-6.079,-6.0732,-6.0633,-6.0814,-6.0886,-6.0915,-6.0527,-6.0524,-6.0522,-6.052,0,0,-6.0181,-6.0246,-6.0281,-6.0315,-6.0372,-6.0447,-6.0558,-6.064,-6.0691,-6.0747,-6.0839,-6.096,-6.0907,-6.0951,-6.0932,-6.1011,-6.1189,-6.0943,-6.0944,-6.0987,-6.1391,-6.1434,-6.1469,-6.1158,-6.1164,-6.1168,-6.1387,0,-6.0399,-6.0595,-6.0579,-6.0764,-6.0853,-6.0795,-6.0891,-6.0936,-6.0945,-6.102,-6.1028,-6.1115,-6.1038,-6.1064,-6.114,-6.1151,-6.127,-6.1135,-6.1242,-6.1246,-6.1231,-6.1506,-6.1553,-6.1757,-6.1414,-6.1419,-6.1423,0,-6.0679,-6.0746,-6.094,-6.0983,-6.102,-6.1107,-6.118,-6.1254,-6.1302,-6.1302,-6.1352,-6.1319,-6.1429,-6.1328,-6.1478,-6.1387,-6.143,-6.1442,-6.1449,-6.1458,-6.1346,-6.1523,-6.1822,-6.1852,-6.1467,-6.1463,-6.146,0,-6.0871,-6.1009,-6.1142,-6.1174,-6.1227,-6.129,-6.1314,-6.1357,-6.1407,-6.1469,-6.1501,-6.1575,-6.1616,-6.1674,-6.1661,-6.1589,-6.1815,-6.1712,-6.1817,-6.1817,-6.1867,-6.1864,-6.2177,-6.1895,-6.1895,-6.1894,-6.1893,0,-6.1116,-6.1237,-6.1229,-6.1312,-6.1444,-6.1424,-6.1555,-6.1572,-6.161,-6.1693,-6.1646,-6.1724,-6.1704,-6.1781,-6.1772,-6.1897,-6.1916,-6.1918,-6.1914,-6.1922,-6.1922,-6.195,-6.1935,-6.1902,-6.19,-6.1899,-6.1897,0,-6.1352,-6.1353,-6.1494,-6.1533,-6.1545,-6.1642,-6.1674,-6.175,-6.1754,-6.186,-6.1883,-6.189,-6.1978,-6.1971,-6.207,-6.2064,-6.2219,-6.2198,-6.2203,-6.2198,-6.2303,-6.2293,-6.2644,-6.2689,-6.2379,-6.2381,-6.2384,0,-6.1509,-6.1601,-6.1649,-6.1702,-6.1731,-6.1817,-6.1868,-6.185,-6.1904,-6.1965,-6.2034,-6.2118,-6.2185,-6.2328,-6.234,-6.2415,-6.2395,-6.2513,-6.2406,-6.2411,-6.2396,-6.2391,-6.24,-6.2534,-6.2538,-6.2541,-6.2543,0,-6.1786,-6.1781,-6.1857,-6.1933,-6.1995,-6.2053,-6.2106,-6.2152,-6.2139,-6.2202,-6.2292,-6.2344,-6.2445,-6.2528,-6.2599,-6.2622,-6.2581,-6.2577,-6.2605,-6.2614,-6.2613,-6.2614,-6.226,-6.2569,-6.2566,-6.2564,-6.2563,-6.2562,-6.1987,-6.2065,-6.2112,-6.2197,-6.2235,-6.2286,-6.2359,-6.2373,-6.2449,-6.2531,-6.2515,-6.2616,-6.2659,-6.2751,-6.2781,-6.2858,-6.2816,-6.2856,-6.2866,-6.2877,-6.2889,-6.2601,-6.2871,-6.287,-6.287,-6.2869,-6.2868,0,-6.2261,-6.2288,-6.2367,-6.2443,-6.251,-6.2466,-6.2522,-6.258,-6.267,-6.2715,-6.2782,-6.2884,-6.2965,-6.2983,-6.306,-6.3118,-6.3101,-6.3138,-6.3134,-6.314,-6.2923,-6.2891,-6.3151,-6.3151,-6.3151,-6.3151,-6.3151,-6.3151,-6.2412,-6.2542,-6.2543,-6.269,-6.2715,-6.2815,-6.2851,-6.2896,-6.2932,-6.305,-6.3117,-6.3129,-6.3162,-6.3241,-6.3312,-6.3315,-6.3345,-6.3391,-6.3386,-6.3183,-6.3155,-6.3128,-6.3098,-6.3397,-6.3398,-6.3596,-6.3598,-6.36]}]]